SILO ALERT LOG


Silo ID Alert Type Alert Message Silo Type Points Depth (mm) Strength Temperature (°C) Humidity (%) Height (mm) Volume (㎥) Weight (t) Flag Time
DJHNR01 Humidity 습도센서 측정값이 80% 초과 호퍼 466 3666 3575 8 99.9 11713 520.443 329.024 13 2024-01-11 13:39:32.000
DJSSD01 Humidity 습도센서 측정값이 80% 초과 793 2577 4743 6.1 83.4 5502 765.839 484.163 0 2024-01-11 13:39:32.000
DJDJD04 Humidity 습도센서 측정값이 80% 초과 280 4201 4426 5 81.5 3478 421.466 266.451 11 2024-01-11 13:39:32.000
DJSAD18 Humidity 습도센서 측정값이 80% 초과 119 1406 5827 5.3 80.8 6173 614.781 388.664 11 2024-01-11 13:39:31.000
DJSSD09 Temperature 온도센서 측정값이 0도 미만 121 2873 2710 -45.4 0 4806 668.973 422.924 11 2024-01-11 13:39:31.000
DJDJD01 Humidity 습도센서 측정값이 80% 초과 90 6771 3934 3.8 81.2 908 110.019 69.554 0 2024-01-11 13:39:30.000
DJHNR12 Humidity 습도센서 측정값이 80% 초과 호퍼 0 10500 0 5.7 82.8 -120 0 0 31 2024-01-11 13:39:24.000
DJSSD12 Temperature 온도센서 상태 이상 호퍼 0 11350 0 -999 -999 -120 0 0 31 2024-01-11 13:39:24.000
DJHNR03 Temperature 온도센서 상태 이상 호퍼 0 15500 0 -999 -999 -119 0 0 31 2024-01-11 13:39:23.000
DJSAD01 Humidity 습도센서 측정값이 80% 초과 474 1552 7380 2 88 7227 299.2 189.154 0 2024-01-11 12:39:40.000
DJSAD05 Humidity 습도센서 측정값이 80% 초과 492 893 15318 2.4 80.4 7886 326.478 206.4 11 2024-01-11 12:39:39.000
DJSAD02 Humidity 습도센서 측정값이 80% 초과 389 1136 4285 2.4 87.5 7643 316.426 200.045 11 2024-01-11 12:39:39.000
DJSAD03 Humidity 습도센서 측정값이 80% 초과 238 1172 5384 3.2 84.5 7607 314.918 199.091 29 2024-01-11 12:39:38.000
DJSAD08 Humidity 습도센서 측정값이 80% 초과 0 7700 3735 13.9 81.1 -120 -17.075 0 12 2024-01-11 12:39:37.000
DJSSD04 Temperature 온도센서 상태 이상 0 8200 0 -999 -999 -120 -16.702 0 31 2024-01-11 12:39:34.000
DJSAD12 Humidity 습도센서 측정값이 80% 초과 0 7700 0 3.6 87.5 -120 -17.075 0 31 2024-01-11 12:39:33.000
DJHNR01 Humidity 습도센서 측정값이 80% 초과 호퍼 296 3087 3426 6.7 99.9 12292 563.373 356.165 0 2024-01-11 12:39:32.000
DJSSD01 Humidity 습도센서 측정값이 80% 초과 794 2569 4659 5.6 83.7 5510 766.977 484.883 0 2024-01-11 12:39:32.000
DJSSD05 Temperature 온도센서 측정값이 0도 미만 844 2552 4872 -45.4 43.6 5527 769.337 486.375 0 2024-01-11 12:39:32.000
DJSAD18 Humidity 습도센서 측정값이 80% 초과 119 1389 5812 4.7 80.8 6190 616.438 389.712 11 2024-01-11 12:39:31.000

[첫 페이지] [9995] [9996] [9997] [9998] 9999 [10000] [10001] [10002] [10003] [마지막 페이지]